STARLINK-11601, 63110

Orbit data source: Space-Track

STARLINK-11601, 63110 is a payload satellite owned by SpaceX/Seattle (US) in LEO that was launched on Thu, 27 Feb 2025 UTC via an FALCON 9 launch vehicle from the Air Force Eastern Test Range (AFETR). Payload-class satellites include a variety of spacecraft equipped with specific instruments for various scientific and technological missions. These include communications satellites like Starlink; space stations such as the ISS; scientific satellites like the Hubble; Earth observation satellites from companies like Planet Labs, Umbra, and HawkEye 360; GPS; miniature CubeSats for education and research; and military/defense satellites.

Loading next visibility...
Identifier
63110, 2025-039G
Orbit
LEO
Last TLE update
19 hours ago
Origin
Manufacturer
SpaceX/Seattle
Mission
Operational Commercial Communications
Bus & Motor
STARLINK V2M, Unknown motor
Mass
730 kg wet, ~700 kg dry
Launch date (UTC)
2025-02-27 (2 months ago)
Launch vehicle
FALCON 9
Launch site
Air Force Eastern Test Range (AFETR)
Object type
Payload
Rocket body
Debris
Shape & HBR
Box + 2 Pan, 29 m
Radar Cross Section
36.964 m², Large (>1 m²)

Expand to show TLE details & history

TLE from 19 hours ago
0 STARLINK-11601
1 63110U 25039G   25128.46075118  .00000096  00000-0  34220-5 0  9991
2 63110  43.0006 278.2076 0001831 267.0376  93.0285 15.77859735 11592
Epoch: 2025-05-08T11:03Z
Definitive object data (Epoch: 2025-05-08T11:03:28.901Z)
Latitude
-0.00002°
Longitude
-114.19376°
Altitude
336.341 km
Speed
7.709 km/s
True Right ascension
18h 32m 49s
True Declination
0° 00' 00"
Sunlit
Object was in full shadow at TLE epoch
Visualization TLE readout
Latitude
-37.38647°
Longitude
-173.71495°
Altitude
346.328 km
Speed
7.702 km/s
Apparent Right ascension
13h 24m 21s
Apparent Declination
-86° 39' 30"
Sunlit
Object is in full shadow
Visualization observer readout
Local Sidereal Time
14:41:27
Azimuth
181.376° SSW
Elevation
-36.753°
Doppler factor
1
Orbital elements
Apogee altitude
339.723 km
Perigee altitude
337.263 km
Semi-major axis
6,716.63 km
Eccentricity
0.0001831
Inclination
43.0006°
RAAN
278.2076°
Arg. of periapsis
267.0376°
True anomaly
93.04945°
Mean anomaly
93.0285°
Eccentric anomaly
93.03898°
Mean motion
3.9429 °/min
BSTAR
0.000003422
Orbital period
91.3 mins
Loading maneuver chart data...
Loading SW <> Apogee altitude chart data...
Loading historical data...
Loading historical data...
Loading historical data...
Loading historical data...
Loading historical data...
Loading historical data...
Loading historical data...

STARLINK-11601 Visibility forecast

Observer location: undefined°, undefined°

Span
Click to sort rows by Start time (UTC) header in descending order
Start Az.
Max El. time (UTC)
Max El. Az.
Max El.
End time (UTC)
End Az.
4 mins2025-05-09 13:05:36.625Z214.026° SW2025-05-09 13:07:36.625Z168.166° S25.885°2025-05-09 13:09:36.625Z98.158° ESE
4 mins2025-05-09 17:53:36.625Z280.361° WNW2025-05-09 17:55:36.625Z147.346° SSE39.272°2025-05-09 17:57:36.625Z119.215° SE
|